Regional Weather Roundup
Issued by NWS Charleston, WV

Home | Current Version | Previous Version | Text Only | Print | Product List | Glossary Off
Versions: 1 2 3 4 5 6 7 8 9 10 11 12 13 14 15 16 17 18 19 20 21 22 23 24 25 26 27

000
ASUS41 KRLX 211910
RWRRLX
West Virginia Regional Weather Roundup
National Weather Service Charleston WV
300 PM EDT SUN MAY 21 2017

Note: "fair" indicates few or no clouds below 12,000 feet with no
significant weather and/or obstructions to visibility.

WVZ003-212000-
Northern Panhandle of West Virginia

CITY           SKY/WX    TMP DP  RH WIND       PRES   REMARKS
WHEELING       LGT RAIN  67  65  93 S13       30.06F
$$

WVZ009-212000-
Northwest West Virginia

CITY           SKY/WX    TMP DP  RH WIND       PRES   REMARKS
PARKERSBURG    CLOUDY    70  67  90 S7        30.10S
$$

WVZ006-212000-
Western West Virginia

CITY           SKY/WX    TMP DP  RH WIND       PRES   REMARKS
HUNTINGTON     CLOUDY    70  66  87 S6        30.07F
$$

WVZ015-212000-
West Central West Virginia

CITY           SKY/WX    TMP DP  RH WIND       PRES   REMARKS
CHARLESTON     CLOUDY    72  65  78 S9        30.10F
$$

WVZ022-031-212000-
North Central West Virginia

CITY           SKY/WX    TMP DP  RH WIND       PRES   REMARKS
CLARKSBURG     CLOUDY    74  61  63 SW12      30.10S
MORGANTOWN     CLOUDY    76  60  57 S8G20     30.09S
$$

WVZ025-035-042-045-212000-
Southern West Virginia

CITY           SKY/WX    TMP DP  RH WIND       PRES   REMARKS
BECKLEY        LGT RAIN  66  61  84 S7        30.19F
LOGAN            N/A     68  64  88 CALM      30.14S
BLUEFIELD      LGT RAIN  62  58  86 SE5       30.21F
LEWISBURG      CLOUDY    66  59  77 E3        30.20F
$$

WVZ047-212000-
Northern Mountains of West Virginia

CITY           SKY/WX    TMP DP  RH WIND       PRES   REMARKS
ELKINS         MOSUNNY   74  58  57 S13G20    30.15F
$$

WVZ052-212000-
Eastern Panhandle of West Virginia

CITY           SKY/WX    TMP DP  RH WIND       PRES   REMARKS
MARTINSBURG    CLOUDY    64  46  52 VRB7      30.23F
PETERSBURG     CLOUDY    73  61  67 SE7       30.17F
$$




USA.gov is the U.S. government's official web portal to all federal, state and local government web resources and services.